Location: Malvern Link
(52.1333°N, 2.3000°W)
Time: 16:00:45
(UTC+00:00)

Cosmos 1634 Rocket - Pass Details

Date: 01 December 2021
Orbit: 959 x 993 km, 82.9° (Epoch: 23 January)

Event Time Altitude Azimuth Distance (km) Brightness Sun altitude
Rises 06:13:51 0° 345° (NNW) 3,715 6.7 -14.8°
Reaches altitude 10° 06:16:35 10° 337° (NNW) 2,757 6.0 -14.4°
Maximum altitude 06:22:13 36° 274° (W) 1,521 4.5 -13.5°
Drops below altitude 10° 06:27:47 10° 210° (SSW) 2,720 6.2 -12.7°
Sets 06:30:28 0° 202° (SSW) 3,657 7.0 -12.3°
